WAYLND-WX Weather Reports


time (UTC)temp
F
wind
direction
speed
knots
gust
knots
rain 1hr
in
rain 24hr
in
rain mn
in
humidity
%
barometer
mb
20260505180117 55 271 12.2 0.0 0.00 0.00 0.00 37 981.4
20260505174544 55 272 11.3 0.0 0.00 0.00 0.00 35 980.6
20260505173100 55 275 11.3 0.0 0.00 0.00 0.00 36 979.7
20260505171544 54 277 10.4 0.0 0.00 0.00 0.00 36 979.7
20260505170115 54 280 11.3 0.0 0.00 0.00 0.00 36 979.7
20260505164544 53 290 11.3 0.0 0.00 0.00 0.00 40 980.8
20260505163103 53 290 11.3 0.0 0.00 0.00 0.00 41 978.9
20260505161544 52 281 10.4 0.0 0.00 0.00 0.00 41 978.9
20260505160117 52 273 9.6 0.0 0.00 0.00 0.00 41 978.9
20260505153106 51 269 11.3 0.0 0.00 0.00 0.00 41 979.7
20260505151544 50 277 10.4 0.0 0.00 0.00 0.00 41 979.7
20260505150125 51 284 11.3 0.0 0.00 0.00 0.00 41 979.7
20260505140125 50 279 10.4 0.0 0.00 0.00 0.00 42 979.5
20260505130117 50 299 9.6 0.0 0.00 0.00 0.00 57 979.5
20260505124543 51 282 10.4 0.0 0.00 0.00 0.00 72 978.8
20260505123103 51 301 6.1 0.0 0.00 0.00 0.00 73 977.1
20260505121544 50 301 7.0 0.0 0.00 0.00 0.00 73 977.1
20260505120129 49 292 6.1 0.0 0.00 0.00 0.00 73 977.1
20260505114544 49 287 7.8 0.0 0.00 0.00 0.00 70 977.3
20260505113101 49 285 7.0 0.0 0.00 0.00 0.00 71 975.8
20260505111543 49 297 5.2 0.0 0.00 0.00 0.00 71 975.7
20260505110121 48 288 7.0 0.0 0.00 0.00 0.00 71 975.7
20260505101543 50 269 8.7 0.0 0.00 0.00 0.00 59 974.3
20260505100120 50 268 8.7 0.0 0.00 0.00 0.00 59 974.3
20260505094543 50 271 8.7 0.0 0.00 0.00 0.00 60 974.5
20260505093106 51 275 8.7 0.0 0.00 0.00 0.00 63 974.3
20260505091543 51 263 7.8 0.0 0.00 0.00 0.00 63 974.3
20260505090123 51 261 8.7 0.0 0.00 0.00 0.00 63 974.3
20260505084541 52 272 8.7 0.0 0.00 0.00 0.00 73 974.5
20260505083102 52 271 7.8 0.0 0.00 0.00 0.00 79 973.8
20260505081543 52 264 7.0 0.0 0.00 0.00 0.00 79 973.8
20260505080115 52 256 7.0 0.0 0.00 0.00 0.00 65 974.0
20260505074544 53 254 7.8 0.0 0.00 0.00 0.00 77 973.2
20260505073104 54 252 7.0 0.0 0.00 0.00 0.00 77 973.2
20260505071544 55 248 8.7 0.0 0.00 0.00 0.00 77 973.3
20260505070117 55 242 7.8 0.0 0.00 0.00 0.00 77 973.3
20260505064543 55 245 7.8 0.0 0.00 0.00 0.00 74 973.5
20260505063100 56 239 8.7 0.0 0.00 0.00 0.00 77 973.1
20260505061544 56 241 9.6 0.0 0.00 0.00 0.00 77 973.1
20260505060127 57 243 10.4 0.0 0.00 0.00 0.00 77 973.1
20260505054544 57 237 11.3 0.0 0.00 0.00 0.00 74 974.2
20260505053107 58 245 7.8 0.0 0.00 0.00 0.00 66 972.8
20260505051543 59 250 8.7 0.0 0.00 0.00 0.00 66 972.8
20260505050115 59 242 8.7 0.0 0.00 0.00 0.00 66 972.8
20260505041543 61 207 9.6 0.0 0.00 0.00 0.00 61 972.7
20260505040120 62 221 11.3 0.0 0.00 0.00 0.00 61 972.7
20260505034540 62 226 13.0 0.0 0.00 0.00 0.00 62 972.6
20260505033103 61 210 10.4 0.0 0.00 0.00 0.00 61 972.5
20260505031543 61 197 13.9 0.0 0.00 0.00 0.00 61 972.5
20260505030116 62 201 13.0 0.0 0.00 0.00 0.00 61 972.5
20260505024543 62 205 12.2 0.0 0.00 0.00 0.00 59 972.8
20260505023103 63 211 14.8 0.0 0.00 0.00 0.00 59 972.8
20260505021542 63 212 13.9 0.0 0.00 0.00 0.00 59 972.8
20260505020116 63 212 15.6 0.0 0.00 0.00 0.00 59 972.8
20260505014542 64 211 17.4 0.0 0.00 0.00 0.00 68 972.1
20260505013101 64 209 17.4 0.0 0.00 0.00 0.00 68 972.1
20260505011543 62 203 15.6 0.0 0.00 0.00 0.00 68 972.1
20260505010112 64 207 15.6 0.0 0.00 0.00 0.00 68 972.1
20260505004543 65 207 14.8 0.0 0.00 0.00 0.00 39 972.3
20260505003100 67 201 12.2 0.0 0.00 0.00 0.00 43 973.0
20260505001542 67 194 7.8 0.0 0.00 0.00 0.00 43 973.0
20260505000121 68 201 5.2 0.0 0.00 0.00 0.00 43 973.0
20260504234543 69 218 6.1 0.0 0.00 0.00 0.00 35 973.0
20260504233101 70 237 7.8 0.0 0.00 0.00 0.00 33 972.9
20260504231543 71 238 7.8 0.0 0.00 0.00 0.00 33 972.9
20260504230109 71 246 9.6 0.0 0.00 0.00 0.00 33 972.9
20260504224543 72 248 12.2 0.0 0.00 0.00 0.00 34 972.8
20260504223103 72 248 13.9 0.0 0.00 0.00 0.00 34 973.1
20260504221543 72 251 13.9 0.0 0.00 0.00 0.00 34 973.1
20260504220119 72 244 15.6 0.0 0.00 0.00 0.00 34 973.1
20260504214542 73 239 16.5 0.0 0.00 0.00 0.00 36 974.1
20260504213104 73 238 15.6 0.0 0.00 0.00 0.00 36 974.1
20260504211542 73 238 15.6 0.0 0.00 0.00 0.00 37 973.0
20260504210115 73 242 15.6 0.0 0.00 0.00 0.00 37 973.0
20260504204547 72 240 17.4 0.0 0.00 0.00 0.00 37 973.7
20260504203058 73 237 18.2 0.0 0.00 0.00 0.00 37 973.7
20260504201548 73 237 17.4 0.0 0.00 0.00 0.00 37 973.7
20260504200113 73 234 16.5 0.0 0.00 0.00 0.00 34 973.1
20260504194548 73 234 18.2 0.0 0.00 0.00 0.00 32 973.9
20260504193107 73 234 18.2 0.0 0.00 0.00 0.00 32 973.9
20260504191549 73 229 17.4 0.0 0.00 0.00 0.00 32 973.9
20260504190117 73 231 17.4 0.0 0.00 0.00 0.00 32 973.9
20260504184544 73 227 17.4 0.0 0.00 0.00 0.00 25 975.1
20260504183109 73 226 15.6 0.0 0.00 0.00 0.00 27 974.7
20260504181548 73 226 14.8 0.0 0.00 0.00 0.00 27 974.7